Springboro, OH

3:18 AM EST on February 14, 2016 (GMT -0500)
Dayton-Wright Brothers

Weather History for KMGY - June, 2013

Change the Weather History Date:

Wednesday, June 12, 2013

  Actual Average (KFFO) Record (KFFO)
Temperature  
Mean Temperature 80 °F -  
Max Temperature 89 °F 77 °F 89 °F (1999)
Min Temperature 71 °F 58 °F 51 °F (2006)
Cooling Degree Days 14    
Growing Degree Days 30 (Base 50)    
Moisture  
Dew Point 69 °F    
Average Humidity 70    
Maximum Humidity 81    
Minimum Humidity 55    
Precipitation  
Precipitation 0.00 in - - ()
Sea Level Pressure  
Sea Level Pressure 29.84 in    
Wind  
Wind Speed 6 mph (SW)    
Max Wind Speed 13 mph    
Max Gust Speed 22 mph    
Visibility 10 miles    
Events      
Averages and records for this station are not official NWS values.
T = Trace of Precipitation, MM = Missing Value Source: NWS Daily Summary

Daily Weather History Graph

Daily Weather History Graph

Search for Another Location

Airport or City:

Trip Planner

Search our weather history database for the weather conditions in past years. The results will help you decide how hot, cold, wet, or windy it might be!

Date:

Astronomy

Jun. 12, 2013 Rise Set
Actual Time 6:08 AM EDT 9:05 PM EDT
Civil Twilight 5:36 AM EDT 9:37 PM EDT
Nautical Twilight 4:55 AM EDT 10:18 PM EDT
Astronomical Twilight 4:07 AM EDT 11:06 PM EDT
Moon 9:46 AM EDT (6/12) 11:41 PM EDT (6/12)
Length of Visible Light 16h 01m
Length of Day
14h 56m
Waxing Crescent, 14% of the Moon is Illuminated
Jun 12
Waxing Crescent
Jun 16
First Quarter
Jun 23
Full
Jun 30
Last Quarter
Jul 8
New

Hourly Weather History & Observations

Time (EDT) Temp. Heat Index Dew Point Humidity Pressure Visibility Wind Dir Wind Speed Gust Speed Precip Events Conditions
12:53 AM 73.9 °F - 64.9 °F 73% 29.89 in 10.0 mi SW 4.6 mph - N/A   Clear
1:53 AM 73.0 °F - 64.9 °F 76% 29.89 in 10.0 mi SW 4.6 mph - N/A   Scattered Clouds
2:53 AM 73.0 °F - 66.0 °F 79% 29.88 in 10.0 mi SSW 4.6 mph - N/A   Overcast
3:53 AM 71.1 °F - 64.9 °F 81% 29.86 in 10.0 mi SSW 4.6 mph - N/A   Partly Cloudy
4:53 AM 73.0 °F - 64.9 °F 76% 29.87 in 10.0 mi WSW 4.6 mph - N/A   Scattered Clouds
5:53 AM 73.9 °F - 66.0 °F 76% 29.88 in 10.0 mi WSW 6.9 mph - N/A   Mostly Cloudy
6:53 AM 73.0 °F - 66.0 °F 79% 29.90 in 10.0 mi WSW 3.5 mph - N/A   Clear
7:53 AM 73.9 °F - 66.9 °F 79% 29.91 in 10.0 mi WSW 4.6 mph - N/A   Clear
8:53 AM 75.9 °F - 69.1 °F 79% 29.91 in 10.0 mi Calm Calm - N/A   Clear
9:53 AM 77.0 °F - 70.0 °F 79% 29.91 in 10.0 mi SW 8.1 mph - N/A   Clear
10:53 AM 80.1 °F 83.6 °F 71.1 °F 74% 29.91 in 10.0 mi WSW 5.8 mph - N/A   Clear
11:53 AM 82.0 °F 86.7 °F 72.0 °F 71% 29.91 in 10.0 mi SW 10.4 mph - N/A   Clear
12:53 PM 82.9 °F 87.5 °F 71.1 °F 67% 29.91 in 10.0 mi SW 6.9 mph - N/A   Partly Cloudy
1:53 PM 84.9 °F 90.7 °F 72.0 °F 65% 29.88 in 10.0 mi SW 11.5 mph - N/A   Clear
2:53 PM 86.0 °F 93.0 °F 73.0 °F 65% 29.85 in 10.0 mi South 8.1 mph - N/A   Partly Cloudy
3:53 PM 86.0 °F 92.2 °F 72.0 °F 63% 29.81 in 10.0 mi SW 8.1 mph - N/A   Clear
4:53 PM 88.0 °F 94.7 °F 72.0 °F 59% 29.80 in 10.0 mi SSW 9.2 mph 18.4 mph N/A   Clear
5:53 PM 88.0 °F 92.9 °F 70.0 °F 55% 29.78 in 10.0 mi SSW 11.5 mph - N/A   Partly Cloudy
6:53 PM 87.1 °F 91.3 °F 69.1 °F 55% 29.77 in 10.0 mi SW 11.5 mph - N/A   Clear
7:53 PM 86.0 °F 90.7 °F 70.0 °F 59% 29.75 in 10.0 mi WSW 12.7 mph 21.9 mph N/A   Clear
8:53 PM 84.0 °F 87.8 °F 69.1 °F 61% 29.75 in 10.0 mi SW 8.1 mph - N/A   Clear
9:53 PM 82.9 °F 87.0 °F 70.0 °F 65% 29.74 in 10.0 mi SW 4.6 mph - N/A   Clear
10:53 PM 82.0 °F 85.9 °F 70.0 °F 67% 29.72 in 10.0 mi SSW 8.1 mph - N/A   Clear
11:53 PM 82.0 °F 85.9 °F 70.0 °F 67% 29.71 in 10.0 mi SSW 11.5 mph - N/A   Partly Cloudy